Regional Weather Roundup
Issued by NWS

Home | Current Version | Previous Version | Text Only | Print | Product List | Glossary Off
Versions: 1 2 3 4 5 6 7 8 9 10 11 12 13 14 15 16 17 18 19 20 21 22 23 24 25 26 27 28 29 30 31 32 33 34 35 36 37 38 39 40 41 42 43 44 45 46 47 48 49 50

000
ASUS43 KLSX 231007
RWRMO

WEATHER SUMMARY FOR MISSOURI
NATIONAL WEATHER SERVICE SPRINGFIELD MO
500 AM CDT WED AUG 23 2017

NOTE: "FAIR" INDICATES FEW OR NO CLOUDS BELOW 12,000 FEET WITH NO
       SIGNIFICANT WEATHER AND/OR OBSTRUCTIONS TO VISIBILITY.
       CURRENT SKY AND/OR WEATHER CONDITIONS ARE NOT AVAILABLE FOR
       CHILLICOTHE AND FARMINGTON.

MOZ001>031-035>038-043-044-053-054-231100-
...NORTHERN AND WESTERN MISSOURI...

CITY           SKY/WX    TMP DP  RH WIND       PRES   REMARKS
KANSAS CTY INT CLEAR     58  53  84 NE5       30.15F
KANSAS C DTWN  CLEAR     60  56  86 SW3       30.15F
LEE`S SUMMIT   CLEAR     59  55  87 MISG      30.16S
ST JOSEPH      CLEAR     51  51 100 CALM      30.16F
CHILLICOTHE      N/A     53  53 100 CALM      30.16S
KIRKSVILLE     CLEAR     54  32  43 NW5       30.14F

$$
MOZ066>068-077>081-088>096-101>105-231100-
...SOUTHWEST MISSOURI...

CITY           SKY/WX    TMP DP  RH WIND       PRES   REMARKS
SPRINGFIELD    CLOUDY    63  60  90 NE8       30.11S
JOPLIN         PTCLDY    64  62  93 NE3       30.12S
BRANSON          N/A     68  63  83 CALM      30.11S

$$
MOZ032>034-039>042-045>050-055>058-069>072-231100-
...CENTRAL MISSOURI...

CITY           SKY/WX    TMP DP  RH WIND       PRES   REMARKS
COLUMBIA       CLEAR     57  53  86 NW5       30.13S
JEFFERSON CITY CLEAR     56  56 100 NW3       30.12S
ROLLA          PTCLDY    58  56  93 CALM      30.13S
SEDALIA        CLEAR     57  56  96 CALM      30.14F
WHITEMAN AFB   PTCLDY    56  56 100 N2        30.13S
WARRENSBURG    CLEAR     54  52  94 CALM      30.15S
OSAGE BEACH    CLEAR     58  56  93 CALM      30.13F

$$
MOZ051-052-059>065-231100-
...EAST CENTRAL MISSOURI...

CITY           SKY/WX    TMP DP  RH WIND       PRES   REMARKS
ST LOUIS INTL  CLEAR     61  57  87 NW3       30.09S
SPIRIT OF STL  CLEAR     59  57  93 SW3       30.08S
ST CHARLES     CLEAR     59  54  83 CALM      30.08S

$$
MOZ072>076-082>087-097>100-106>115-231100-
...SOUTH CENTRAL AND SOUTHEAST MISSOURI...

CITY           SKY/WX    TMP DP  RH WIND       PRES   REMARKS
CAPE GIRARDEAU MOCLDY    63  60  90 CALM      30.05R
FARMINGTON     CLEAR     62  57  83 N5        30.09F
POPLAR BLUFF   PTCLDY    65  62  90 N7        30.05R
WEST PLAINS    PTCLDY    65  60  84 N7        30.11R

$$


USA.gov is the U.S. government's official web portal to all federal, state and local government web resources and services.